Theta_e
318 318 318 318 318 318 318 318 318 319 319 319 318 317 316 317 318 320 322 325 331 334 334 333 334 336 336 337 343 346 347 349 348 350 348 343 348 344 344 345 343 344 348 348 347
318 318 319 319 318 318 318 318 317 318 319 320 319 317 316 316 318 319 321 326 326 327 330 331 335 338 336 336 341 343 346 344 345 346 347 344 345 344 346 344 346 348 347 347 346
320 319 318 319 319 319 318 318 318 317 318 320 320 318 317 316 317 318 322 323 327 327 332 330 335 338 338 337 338 339 342 340 342 345 344 344 342 345 347 347 345 349 350 349 346
322 322 322 320 319 319 319 319 318 317 317 319 320 318 317 316 318 322 325 326 325 328 333 330 335 338 338 337 335 339 337 341 345 345 343 342 342 345 347 347 345 347 348 346 347
321 322 322 322 322 319 319 319 318 317 317 318 320 319 318 316 316 323 321 324 327 329 331 331 337 336 337 335 334 336 340 344 344 342 342 342 344 346 347 344 345 347 348 347 345
319 320 321 322 322 322 319 320 319 317 317 318 320 319 317 317 316 317 318 320 322 328 329 332 333 330 334 333 334 335 344 344 342 343 344 344 346 347 346 345 348 349 348 346 346
318 319 320 321 321 322 320 320 319 318 317 319 320 318 317 317 316 316 318 321 322 327 329 332 329 329 329 333 331 334 342 343 343 343 343 345 348 348 344 345 348 349 348 347 346
318 318 318 318 319 321 321 320 318 318 321 321 320 317 316 317 316 317 320 322 325 326 327 327 327 328 330 331 334 336 337 340 340 343 343 342 346 343 344 343 346 347 348 347 345
318 318 317 317 319 322 321 319 319 324 325 324 320 319 318 319 321 320 320 323 323 322 322 324 326 329 332 336 339 336 339 338 337 343 345 345 347 345 345 342 342 344 345 346 346
318 318 316 316 319 322 320 324 324 325 323 322 322 321 320 321 322 322 321 322 321 321 323 325 328 333 333 338 342 338 337 336 337 340 344 346 346 345 345 342 341 340 341 343 344
318 318 317 316 319 322 323 325 323 322 323 323 322 319 323 322 323 322 321 321 321 321 326 322 331 335 337 336 335 335 336 335 335 336 340 344 345 344 346 345 343 341 341 341 341
316 318 318 316 318 321 324 324 323 322 324 323 324 323 323 324 323 322 321 321 321 322 320 325 330 331 332 333 334 334 336 336 335 336 340 341 341 341 344 345 345 344 342 342 342
313 314 316 316 320 320 323 322 322 323 325 323 323 323 322 323 323 322 321 320 319 320 320 324 327 324 329 331 333 334 336 335 333 334 337 337 341 340 345 345 344 343 344 343 343
314 314 314 315 320 319 323 321 322 324 325 323 322 322 323 323 323 322 321 319 317 320 319 321 321 323 326 329 332 336 331 331 332 333 335 336 342 342 341 345 348 344 342 344 345
313 314 314 315 315 319 321 321 324 322 327 324 321 322 323 322 319 322 319 318 319 318 319 321 321 322 325 327 329 332 329 329 331 335 337 338 340 340 340 343 345 347 345 344 346
312 313 315 315 315 318 321 321 324 323 327 325 322 322 324 322 321 318 319 318 317 319 318 321 318 323 326 326 328 327 329 333 333 336 341 338 339 340 340 342 343 344 345 346 345
312 314 315 315 316 321 321 324 323 322 323 326 324 324 322 322 322 321 321 320 321 320 321 319 320 320 322 323 323 326 328 333 338 338 340 335 339 340 339 338 338 339 343 344 344
313 314 315 314 314 317 322 324 322 321 328 325 323 323 323 322 321 321 321 321 318 319 319 321 321 320 321 322 325 325 328 334 338 339 339 334 340 338 337 335 334 337 340 344 344
314 318 326 321 315 318 322 320 319 322 325 322 325 323 323 321 322 321 323 323 322 319 321 321 322 320 320 322 324 329 330 330 331 332 335 336 337 336 336 338 337 336 338 344 344
316 325 322 318 315 321 323 319 323 322 324 322 326 325 327 326 322 321 321 321 321 319 321 322 323 320 321 323 324 329 330 333 335 337 336 337 339 337 342 340 339 339 338 340 344
319 324 320 318 321 320 323 321 321 321 322 325 324 326 326 327 325 324 323 321 319 318 318 319 322 323 321 324 326 329 330 331 334 336 335 335 335 339 341 341 339 338 340 340 342
322 326 323 325 323 319 322 322 321 326 324 324 325 326 326 326 326 325 326 324 328 318 320 320 321 323 323 321 320 324 329 332 329 334 335 336 334 335 336 339 337 338 341 342 342
323 324 323 324 328 327 326 327 325 328 328 326 326 324 324 328 328 324 326 329 329 319 321 319 322 324 324 322 321 323 325 327 328 331 337 333 332 336 337 340 339 339 341 346 342
323 328 325 325 323 326 329 330 330 328 327 327 327 327 331 326 324 326 330 332 331 330 320 318 319 324 325 325 326 330 330 328 331 335 334 335 334 336 337 339 338 340 342 346 343
323 325 324 329 327 327 327 329 331 332 329 330 331 334 334 335 325 327 331 332 331 330 325 322 330 322 322 320 321 325 328 330 332 334 335 334 336 337 338 337 336 337 343 347 348
323 324 325 325 324 326 324 330 331 331 332 333 335 334 331 333 336 333 330 332 333 334 334 328 335 330 334 327 321 325 328 331 331 332 332 334 335 335 334 334 337 340 342 346 350
321 323 323 323 326 327 329 329 330 329 330 331 331 333 334 334 332 333 333 330 331 335 336 334 336 337 334 332 327 328 328 330 330 331 330 331 331 336 337 340 339 341 343 345 349
Wind_Speed
12 13 13 13 14 14 14 14 14 14 14 14 12 12 11 12 11 10 9 4 2 5 3 6 8 10 2 1 1 1 0 2 3 2 1 6 4 4 5 13 4 1 8 15 25
13 13 14 14 14 14 15 14 15 14 14 14 13 12 11 12 11 9 9 9 9 8 5 4 5 7 2 2 1 2 0 2 4 4 1 9 5 8 6 12 4 9 9 29 26
14 15 15 15 15 15 15 15 15 15 14 14 13 11 10 9 8 4 5 8 9 9 7 2 1 2 2 2 1 1 2 4 4 5 8 10 6 5 9 8 9 15 25 26 26
16 16 16 16 16 16 16 16 15 15 14 13 13 11 9 6 3 7 5 4 7 10 7 1 1 3 0 5 3 4 5 4 1 7 7 8 9 4 8 2 6 17 29 29 24
16 17 17 17 17 17 16 17 16 15 14 13 12 10 8 6 7 7 5 7 10 11 8 5 4 2 2 5 5 2 8 4 5 10 9 10 5 1 8 4 13 20 27 25 23
18 18 18 18 18 17 17 17 17 15 14 13 10 9 6 5 6 9 8 5 6 11 11 7 4 2 2 3 3 4 5 4 6 6 6 5 3 0 3 10 17 22 26 24 23
18 18 18 19 19 18 16 17 17 15 13 11 9 9 10 13 5 5 9 7 8 11 11 9 5 3 2 1 6 3 1 5 6 3 2 5 2 5 13 16 17 18 23 22 22
18 18 18 18 19 18 16 16 15 13 9 8 7 8 8 4 5 9 7 7 9 10 9 7 5 2 1 1 2 3 3 4 2 3 3 1 6 4 15 20 17 16 19 20 24
18 18 18 18 18 16 14 14 12 9 7 6 6 5 7 2 2 3 11 8 9 8 7 6 5 2 1 2 0 6 3 6 4 6 2 4 5 1 11 18 19 18 18 19 20
18 18 18 17 16 13 11 10 5 8 5 5 8 5 4 2 2 2 11 10 6 6 6 4 2 3 2 3 2 2 2 3 6 1 9 8 16 4 13 19 21 21 19 20 21
18 18 17 17 14 11 5 4 4 3 5 6 3 4 6 4 3 6 10 11 7 4 4 2 7 11 11 4 4 6 2 4 6 0 5 13 17 7 16 19 20 22 22 22 22
18 18 17 15 13 5 4 4 6 5 8 11 15 22 22 16 4 4 12 6 4 5 3 3 11 5 5 6 6 4 2 3 4 8 3 4 13 4 13 19 23 24 25 26 23
18 18 16 14 7 4 4 5 9 9 3 6 3 5 5 10 5 4 13 9 3 6 5 7 1 7 6 7 8 4 7 4 4 6 6 4 5 2 2 12 17 21 23 24 27
17 17 15 11 2 6 5 6 13 3 2 1 1 1 6 5 3 6 14 7 2 8 8 5 3 6 8 8 8 12 3 4 4 4 4 3 5 6 2 7 11 21 27 25 28
17 16 14 10 8 3 3 7 7 2 2 5 3 4 7 4 5 3 10 5 7 6 5 5 6 9 7 5 7 6 2 4 3 3 3 4 4 3 3 9 8 20 26 28 26
16 16 13 10 7 3 3 5 1 3 2 3 3 2 4 1 2 4 4 4 5 5 1 3 2 3 8 6 9 5 3 2 2 1 6 2 3 4 4 6 7 4 23 26 26
15 15 14 8 1 3 1 2 2 2 2 4 3 2 2 5 2 3 8 6 4 4 5 2 7 3 3 5 3 5 6 6 7 5 6 2 4 10 8 10 11 14 9 23 24
14 14 11 7 6 6 4 2 2 1 2 2 2 1 4 6 3 3 7 9 3 3 2 3 4 9 8 11 6 9 10 7 9 8 5 2 4 5 6 7 10 11 11 10 20
14 8 2 3 9 10 4 3 1 2 3 7 4 2 2 2 2 3 7 8 9 13 7 4 3 2 7 5 11 6 7 2 3 2 3 2 5 12 9 13 10 13 11 11 18
11 3 7 3 12 11 1 1 2 3 3 2 3 2 3 2 3 3 5 3 4 13 9 5 3 1 1 5 4 5 10 5 2 5 7 4 4 9 9 14 9 11 15 13 14
4 4 7 14 10 2 2 2 3 5 5 2 1 2 1 2 1 2 2 2 3 3 7 7 4 2 2 7 10 4 4 1 2 2 7 9 7 7 13 14 10 9 9 11 11
3 2 9 4 2 2 2 2 2 3 1 3 2 2 2 2 1 2 2 2 1 8 8 7 2 7 11 1 2 1 5 8 5 5 1 4 10 4 12 12 8 12 10 4 9
4 4 7 8 2 2 1 2 3 2 2 1 2 4 1 2 1 2 2 2 3 6 5 9 4 4 3 4 2 6 5 5 1 1 7 9 9 3 10 14 6 12 12 7 8
2 2 2 1 2 1 2 2 3 3 4 3 3 1 2 2 2 0 1 1 1 1 0 8 3 4 6 2 1 5 7 8 9 4 3 8 14 11 11 13 13 12 11 7 8
4 2 1 2 2 2 2 2 3 2 1 2 2 5 4 1 1 2 2 3 1 3 2 4 2 3 6 8 6 8 3 8 12 4 6 4 7 12 9 9 15 14 10 10 10
3 2 1 1 1 3 1 2 1 3 2 2 4 8 2 2 2 2 3 1 1 1 1 1 2 2 2 4 6 7 7 8 12 6 10 10 11 10 15 13 15 10 12 14 13
2 1 1 0 2 3 4 2 2 4 2 3 6 4 2 2 12 14 12 10 5 3 1 2 3 2 3 3 2 6 13 11 6 6 7 7 12 7 11 10 13 7 11 9 9
Wind_Direction
350 346 344 341 340 337 335 334 331 332 333 332 324 313 296 286 285 283 279 251 188 198 302 350 8 335 9 54 184 157 51 267 264 216 120 143 131 96 108 138 139 105 157 164 161
343 340 337 337 335 333 332 330 326 327 328 330 326 317 305 293 288 292 249 239 231 234 255 323 1 344 353 37 123 252 220 267 202 196 167 153 149 145 141 154 92 90 136 157 162
335 334 333 331 331 330 328 327 323 321 322 325 325 319 311 306 303 169 190 230 220 217 224 281 314 340 330 353 349 208 277 310 231 176 143 151 142 144 144 196 201 161 149 159 164
329 328 328 325 325 325 325 323 319 316 316 317 322 316 310 299 199 148 137 168 196 188 192 164 255 151 14 341 352 286 316 293 54 139 128 158 144 154 185 352 211 167 161 162 170
321 321 323 323 321 319 320 320 316 311 311 310 316 312 310 283 246 174 133 114 148 163 175 162 98 103 19 327 335 279 323 4 87 119 115 135 157 145 191 29 140 155 163 168 172
320 319 318 320 319 315 316 318 314 308 307 303 306 300 293 259 233 222 220 198 153 161 164 163 144 140 136 299 334 353 34 47 66 99 115 128 116 211 120 142 141 158 171 176 180
323 320 320 321 319 314 316 317 310 307 302 293 292 286 275 254 232 211 200 189 162 161 159 160 151 168 177 314 331 312 307 89 63 58 100 116 176 211 155 154 156 171 178 185 189
325 324 323 322 320 316 319 314 310 306 296 281 277 284 260 260 250 232 193 172 160 163 163 167 162 172 197 327 22 26 16 14 46 185 93 203 272 221 167 162 169 181 189 196 201
326 326 326 325 321 320 322 313 308 303 297 271 269 273 272 325 108 149 176 159 150 152 163 164 169 142 124 88 51 20 40 3 7 211 139 221 283 130 179 182 178 189 197 204 209
325 326 329 330 326 327 330 323 300 295 293 273 255 280 256 176 3 177 169 162 145 145 135 160 108 173 124 219 248 95 11 331 330 314 221 239 255 189 181 194 194 193 205 210 215
323 325 332 334 332 331 339 326 319 295 296 235 234 262 296 1 51 139 158 155 155 101 175 39 204 213 221 194 135 137 144 319 311 313 237 245 268 246 199 200 201 199 205 214 221
325 325 332 336 332 341 8 78 59 337 308 291 257 255 259 272 287 155 162 151 144 181 135 160 223 206 189 179 161 173 250 287 286 313 264 336 286 293 203 211 207 204 209 215 223
324 324 331 337 335 7 111 51 353 339 275 298 274 263 230 200 209 193 170 154 116 158 174 207 159 167 181 186 193 204 255 281 287 311 269 315 288 281 193 217 214 215 221 219 218
325 325 329 341 337 350 169 348 340 326 318 337 189 157 167 164 182 175 168 148 108 181 163 215 175 187 181 198 214 246 189 260 286 317 304 347 295 304 295 244 216 216 217 220 216
324 324 326 326 319 340 227 330 337 4 119 357 85 133 160 185 126 160 173 151 155 157 187 188 196 197 207 212 198 248 158 291 300 282 245 194 260 286 328 307 250 214 218 216 216
322 321 319 314 309 243 219 320 20 262 89 60 108 116 171 314 88 105 152 141 126 135 194 233 241 222 234 193 194 135 156 88 103 171 238 113 271 252 299 278 295 218 219 213 214
323 317 308 300 240 194 223 150 257 224 335 28 24 11 204 179 168 142 156 164 169 170 209 238 228 230 196 188 160 186 191 217 221 215 244 114 226 269 266 267 267 286 250 217 211
327 315 299 279 219 197 157 160 224 34 342 344 353 239 194 162 181 112 157 198 182 120 146 215 211 194 181 218 202 196 222 227 227 227 243 142 232 260 269 279 285 271 269 225 214
337 331 343 214 185 174 156 186 286 207 323 334 317 135 131 119 182 178 192 203 206 189 208 178 254 207 212 168 199 162 206 271 189 103 263 246 250 278 270 273 255 255 238 226 220
349 96 23 151 152 149 136 213 239 227 315 287 30 8 120 61 148 203 179 170 219 200 215 190 264 201 107 169 71 235 141 174 228 201 238 206 254 256 280 284 295 256 247 236 225
13 87 69 116 134 103 183 217 271 266 245 291 356 350 22 75 148 182 149 166 221 148 196 165 233 161 209 202 188 162 199 87 176 254 251 257 251 235 249 267 290 279 267 265 233
70 99 145 44 107 26 163 209 279 290 304 267 260 257 280 329 201 196 176 254 254 156 170 187 198 235 249 143 3 297 239 194 228 205 229 287 264 247 254 274 277 280 288 268 223
66 89 169 27 127 119 258 285 267 266 266 273 266 241 168 288 223 228 232 113 105 169 168 174 203 224 224 170 131 233 207 215 161 189 207 251 270 222 265 274 259 262 272 267 208
66 128 95 99 94 63 21 19 331 262 258 259 289 308 314 250 224 313 281 148 14 130 161 163 149 235 261 237 207 194 198 199 215 193 208 239 269 266 263 273 285 257 252 260 215
39 75 120 163 161 224 266 310 323 3 239 343 140 359 271 281 298 224 252 306 136 100 116 209 231 217 272 252 239 249 210 190 229 197 227 304 227 262 268 282 286 276 230 220 207
52 29 48 136 258 195 175 189 342 336 284 61 17 353 98 88 3 286 352 239 314 355 107 275 197 216 277 346 241 234 203 201 223 229 251 266 276 274 280 279 274 243 211 213 200
88 63 38 161 183 196 173 172 171 349 220 259 341 326 254 342 307 274 253 278 295 294 342 297 205 216 268 347 266 237 217 204 198 218 242 240 273 292 282 282 297 257 226 212 177